Hourly Weather Kipungo

Today, 28 September, Monday

Time Temperature Precipitation Wind Pressure Humidity
00:00 +16°C° 0 mm 1 mps 651 mmHg 82%
01:00 +15°C° 0 mm 1 mps 651 mmHg 89%
02:00 +14°C° 0 mm 1 mps 651 mmHg 91%
03:00 +14°C° 0 mm 1 mps 651 mmHg 92%
04:00 +14°C° 0 mm 1 mps 651 mmHg 93%
05:00 +15°C° 0 mm 1 mps 652 mmHg 84%
06:00 +18°C° 0 mm 1 mps 653 mmHg 75%
07:00 +17°C° 0 mm 0 mps 654 mmHg 66%
08:00 +24°C° 0 mm 1 mps 654 mmHg 48%
09:00 +28°C° 0 mm 2 mps 655 mmHg 30%
10:00 +33°C° 0 mm 3 mps 656 mmHg 12%
11:00 +35°C° 0 mm 3 mps 655 mmHg 10%
12:00 +37°C° 0 mm 2 mps 655 mmHg 9%
13:00 +39°C° 0 mm 2 mps 654 mmHg 7%
14:00 +39°C° 0 mm 2 mps 654 mmHg 8%
15:00 +39°C° 0 mm 2 mps 654 mmHg 8%
16:00 +37°C° 0 mm 1 mps 653 mmHg 8%
17:00 +35°C° 0 mm 2 mps 653 mmHg 13%
18:00 +30°C° 0 mm 2 mps 653 mmHg 19%
19:00 +26°C° 0 mm 3 mps 653 mmHg 24%
20:00 +24°C° 0 mm 3 mps 653 mmHg 37%
21:00 +21°C° 0 mm 3 mps 653 mmHg 51%
22:00 +19°C° 0 mm 3 mps 653 mmHg 64%
23:00 +18°C° 0 mm 2 mps 653 mmHg 69%

Tomorrow, 29 September, Tuesday

Time Temperature Precipitation Wind Pressure Humidity
00:00 +17°C° 0 mm 2 mps 652 mmHg 75%
01:00 +16°C° 0 mm 2 mps 652 mmHg 80%
02:00 +15°C° 0 mm 1 mps 652 mmHg 81%
03:00 +14°C° 0 mm 1 mps 652 mmHg 82%
04:00 +13°C° 0 mm 0 mps 651 mmHg 83%
05:00 +14°C° 0 mm 0 mps 652 mmHg 75%
06:00 +16°C° 0 mm 0 mps 653 mmHg 67%
07:00 +17°C° 0 mm 0 mps 654 mmHg 58%
08:00 +23°C° 0 mm 1 mps 655 mmHg 43%
09:00 +28°C° 0 mm 2 mps 655 mmHg 28%
10:00 +33°C° 0 mm 3 mps 656 mmHg 13%
11:00 +35°C° 0 mm 3 mps 655 mmHg 11%
12:00 +36°C° 0 mm 3 mps 655 mmHg 9%
13:00 +38°C° 0 mm 3 mps 654 mmHg 7%
14:00 +38°C° 0 mm 3 mps 654 mmHg 7%
15:00 +38°C° 0 mm 2 mps 653 mmHg 7%
16:00 +38°C° 0 mm 2 mps 653 mmHg 7%
17:00 +34°C° 0 mm 2 mps 653 mmHg 11%
18:00 +30°C° 0 mm 3 mps 653 mmHg 16%
19:00 +26°C° 0 mm 3 mps 653 mmHg 21%
20:00 +25°C° 0 mm 3 mps 653 mmHg 33%
21:00 +22°C° 0 mm 3 mps 653 mmHg 45%
22:00 +20°C° 0 mm 3 mps 653 mmHg 57%
23:00 +18°C° 0 mm 3 mps 652 mmHg 61%

Day after tomorrow, 30 September, Wednesday

Time Temperature Precipitation Wind Pressure Humidity
00:00 +17°C° 0 mm 2 mps 652 mmHg 65%
01:00 +16°C° 0 mm 2 mps 651 mmHg 70%
02:00 +15°C° 0 mm 2 mps 651 mmHg 71%
03:00 +15°C° 0 mm 1 mps 651 mmHg 73%
04:00 +14°C° 0 mm 1 mps 650 mmHg 74%
05:00 +15°C° 0 mm 1 mps 651 mmHg 68%
06:00 +16°C° 0 mm 1 mps 652 mmHg 63%
07:00 +18°C° 0 mm 1 mps 653 mmHg 57%
08:00 +23°C° 0 mm 1 mps 654 mmHg 42%
09:00 +28°C° 0 mm 1 mps 655 mmHg 28%
10:00 +34°C° 0 mm 2 mps 656 mmHg 14%
11:00 +36°C° 0 mm 1 mps 655 mmHg 11%
12:00 +40°C° 0 mm 1 mps 655 mmHg 9%
13:00 +42°C° 0 mm 1 mps 655 mmHg 6%
14:00 +41°C° 0 mm 1 mps 654 mmHg 7%
15:00 +41°C° 0 mm 1 mps 653 mmHg 7%
16:00 +40°C° 0 mm 1 mps 653 mmHg 8%
17:00 +35°C° 0 mm 2 mps 652 mmHg 14%
18:00 +30°C° 0 mm 3 mps 652 mmHg 20%
19:00 +26°C° 0 mm 4 mps 652 mmHg 26%
20:00 +22°C° 0 mm 4 mps 652 mmHg 40%
21:00 +20°C° 0 mm 3 mps 652 mmHg 54%
22:00 +18°C° 0 mm 3 mps 652 mmHg 68%
23:00 +16°C° 0 mm 3 mps 652 mmHg 76%

1 October, Thursday

Time Temperature Precipitation Wind Pressure Humidity
00:00 +15°C° 0 mm 2 mps 651 mmHg 84%
01:00 +14°C° 0 mm 2 mps 651 mmHg 91%
02:00 +13°C° 0 mm 1 mps 651 mmHg 93%
03:00 +13°C° 0 mm 1 mps 650 mmHg 94%
04:00 +13°C° 0 mm 1 mps 650 mmHg 96%
05:00 +14°C° 0 mm 1 mps 651 mmHg 87%
06:00 +15°C° 0 mm 1 mps 652 mmHg 78%
07:00 +16°C° 0 mm 0 mps 652 mmHg 69%
08:00 +22°C° 0 mm 0 mps 654 mmHg 50%
09:00 +28°C° 0 mm 0 mps 655 mmHg 31%
10:00 +34°C° 0 mm 0 mps 657 mmHg 12%
11:00 +36°C° 0 mm 0 mps 656 mmHg 11%
12:00 +40°C° 0 mm 1 mps 655 mmHg 9%
13:00 +41°C° 0 mm 1 mps 655 mmHg 7%
14:00 +40°C° 0 mm 2 mps 654 mmHg 8%
15:00 +39°C° 0 mm 2 mps 653 mmHg 9%
16:00 +38°C° 0 mm 3 mps 652 mmHg 9%
17:00 +34°C° 0 mm 3 mps 652 mmHg 14%
18:00 +29°C° 0 mm 3 mps 652 mmHg 18%
19:00 +26°C° 0 mm 3 mps 652 mmHg 22%
20:00 +22°C° 0 mm 3 mps 652 mmHg 36%
21:00 +20°C° 0 mm 3 mps 652 mmHg 49%
22:00 +18°C° 0 mm 2 mps 652 mmHg 63%
23:00 +17°C° 0 mm 2 mps 652 mmHg 72%

2 October, Friday

Time Temperature Precipitation Wind Pressure Humidity
00:00 +15°C° 0 mm 2 mps 651 mmHg 81%
01:00 +14°C° 0 mm 1 mps 651 mmHg 90%
02:00 +14°C° 0 mm 1 mps 651 mmHg 90%
03:00 +13°C° 0 mm 1 mps 651 mmHg 91%
04:00 +12°C° 0 mm 0 mps 651 mmHg 92%
05:00 +14°C° 0 mm 1 mps 652 mmHg 83%
06:00 +16°C° 0 mm 1 mps 652 mmHg 74%
07:00 +18°C° 0 mm 1 mps 653 mmHg 64%
08:00 +24°C° 0 mm 1 mps 654 mmHg 47%
09:00 +28°C° 0 mm 0 mps 656 mmHg 30%
10:00 +34°C° 0 mm 0 mps 657 mmHg 13%
11:00 +36°C° 0 mm 0 mps 657 mmHg 12%
12:00 +38°C° 0 mm 0 mps 656 mmHg 10%
13:00 +43°C° 0 mm 1 mps 656 mmHg 8%
14:00 +41°C° 0 mm 1 mps 655 mmHg 9%
15:00 +40°C° 0 mm 1 mps 654 mmHg 10%
16:00 +37°C° 0 mm 1 mps 653 mmHg 10%
17:00 +35°C° 0 mm 2 mps 653 mmHg 15%
18:00 +30°C° 0 mm 3 mps 653 mmHg 19%
19:00 +26°C° 0 mm 3 mps 653 mmHg 23%
20:00 +24°C° 0 mm 3 mps 653 mmHg 33%
21:00 +21°C° 0 mm 3 mps 653 mmHg 43%
22:00 +19°C° 0 mm 2 mps 653 mmHg 53%
23:00 +18°C° 0 mm 2 mps 653 mmHg 59%

3 October, Saturday

Time Temperature Precipitation Wind Pressure Humidity
00:00 +18°C° 0 mm 1 mps 652 mmHg 64%
01:00 +16°C° 0 mm 1 mps 652 mmHg 70%
02:00 +15°C° 0 mm 1 mps 652 mmHg 73%
03:00 +15°C° 0 mm 1 mps 652 mmHg 76%
04:00 +14°C° 0 mm 1 mps 652 mmHg 79%
05:00 +16°C° 0 mm 1 mps 653 mmHg 73%
06:00 +16°C° 0 mm 0 mps 653 mmHg 67%
07:00 +18°C° 0 mm 0 mps 654 mmHg 61%
08:00 +24°C° 0 mm 1 mps 655 mmHg 45%
09:00 +28°C° 0 mm 1 mps 656 mmHg 29%
10:00 +32°C° 0 mm 2 mps 656 mmHg 12%
11:00 +36°C° 0 mm 2 mps 656 mmHg 11%
12:00 +38°C° 0 mm 2 mps 656 mmHg 9%
13:00 +40°C° 0 mm 2 mps 655 mmHg 8%
14:00 +40°C° 0 mm 2 mps 655 mmHg 8%
15:00 +39°C° 0 mm 2 mps 654 mmHg 8%
16:00 +39°C° 0 mm 1 mps 653 mmHg 8%
17:00 +35°C° 0 mm 2 mps 653 mmHg 10%
18:00 +31°C° 0 mm 2 mps 653 mmHg 13%
19:00 +27°C° 0 mm 2 mps 653 mmHg 15%
20:00 +25°C° 0 mm 2 mps 653 mmHg 25%
21:00 +21°C° 0 mm 2 mps 653 mmHg 35%
22:00 +19°C° 0 mm 2 mps 653 mmHg 45%
23:00 +18°C° 0 mm 2 mps 652 mmHg 49%
Show more